Location: Heilbronn
(49.1548°N, 9.2780°E)
Time: 05:58:29
(UTC+01:00)

ISS - Pass Details

Date: 12 January 2018
Orbit: 402 x 407 km, 51.6° (Epoch: 20 January)

Event Time Altitude Azimuth Distance (km) Brightness Sun altitude
Exits shadow 06:24:03 44° 240° (WSW) 570 -3.5 -17.3°
Maximum altitude 06:24:32 49° 209° (SSW) 531 -3.4 -17.3°
Drops below altitude 10° 06:27:43 10° 133° (SE) 1,463 -0.1 -16.7°
Sets 06:29:49 0° 128° (SE) 2,321 1.3 -16.4°
